Time,TemperatureF,DewpointF,PressureIn,WindDirection,WindDirectionDegrees,WindSpeedMPH,WindSpeedGustMPH,Humidity,HourlyPrecipIn,Conditions,Clouds,dailyrainin,SoftwareType,DateUTC
2013-07-16 00:05:00,76.5,76.2,30.16,ESE,112,0.0,-999.0,99,-99.99,,,0.00,Acu-Link.com,2013-07-16 05:05:00,
2013-07-16 00:20:00,75.9,75.6,30.16,SE,135,0.0,-999.0,99,-99.99,,,0.00,Acu-Link.com,2013-07-16 05:20:00,
2013-07-16 00:35:00,75.0,74.7,30.16,SE,135,0.0,-999.0,99,-99.99,,,0.00,Acu-Link.com,2013-07-16 05:35:00,
2013-07-16 00:50:00,75.0,74.7,30.16,SE,135,0.0,-999.0,99,-99.99,,,0.00,Acu-Link.com,2013-07-16 05:50:00,
2013-07-16 01:05:00,74.3,74.0,30.16,SE,135,0.0,-999.0,99,-99.99,,,0.00,Acu-Link.com,2013-07-16 06:05:00,
2013-07-16 01:20:00,74.1,73.8,30.17,SE,135,0.0,-999.0,99,-99.99,,,0.00,Acu-Link.com,2013-07-16 06:20:00,
2013-07-16 01:35:00,73.9,73.6,30.16,SE,135,0.0,-999.0,99,-99.99,,,0.00,Acu-Link.com,2013-07-16 06:35:00,
2013-07-16 01:50:00,73.6,73.3,30.16,East,90,0.0,-999.0,99,-99.99,,,0.00,Acu-Link.com,2013-07-16 06:50:00,
2013-07-16 02:06:00,73.4,73.1,30.16,SSW,202,0.0,-999.0,99,-99.99,,,0.00,Acu-Link.com,2013-07-16 07:06:00,
2013-07-16 02:21:00,73.0,72.7,30.16,SE,135,0.0,-999.0,99,-99.99,,,0.00,Acu-Link.com,2013-07-16 07:21:00,
2013-07-16 02:36:00,72.5,72.2,30.16,SE,135,0.0,-999.0,99,-99.99,,,0.00,Acu-Link.com,2013-07-16 07:36:00,
2013-07-16 02:51:00,72.5,72.2,30.16,SE,135,0.0,-999.0,99,-99.99,,,0.00,Acu-Link.com,2013-07-16 07:51:00,
2013-07-16 03:06:00,72.3,72.0,30.16,SE,135,0.0,-999.0,99,-99.99,,,0.00,Acu-Link.com,2013-07-16 08:06:00,
2013-07-16 03:22:00,72.3,72.0,30.16,SE,135,0.0,-999.0,99,-99.99,,,0.00,Acu-Link.com,2013-07-16 08:22:00,
2013-07-16 03:37:00,72.1,71.8,30.16,ESE,112,0.0,-999.0,99,-99.99,,,0.00,Acu-Link.com,2013-07-16 08:37:00,
2013-07-16 03:52:00,72.1,71.8,30.17,ESE,112,0.0,-999.0,99,-99.99,,,0.00,Acu-Link.com,2013-07-16 08:52:00,
2013-07-16 04:07:00,72.1,71.8,30.16,SE,135,0.0,-999.0,99,-99.99,,,0.00,Acu-Link.com,2013-07-16 09:07:00,
2013-07-16 04:22:00,72.1,71.8,30.17,SE,135,0.0,-999.0,99,-99.99,,,0.00,Acu-Link.com,2013-07-16 09:22:00,
2013-07-16 04:37:00,72.0,71.7,30.18,SE,135,0.0,-999.0,99,-99.99,,,0.00,Acu-Link.com,2013-07-16 09:37:00,
2013-07-16 04:52:00,72.1,71.8,30.18,SE,135,0.0,-999.0,99,-99.99,,,0.00,Acu-Link.com,2013-07-16 09:52:00,
2013-07-16 05:07:00,71.8,71.5,30.19,SE,135,0.0,-999.0,99,-99.99,,,0.00,Acu-Link.com,2013-07-16 10:07:00,
2013-07-16 05:23:00,71.4,71.1,30.18,SE,135,0.0,-999.0,99,-99.99,,,0.00,Acu-Link.com,2013-07-16 10:23:00,
2013-07-16 05:38:00,71.6,71.3,30.18,ESE,112,0.0,-999.0,99,-99.99,,,0.00,Acu-Link.com,2013-07-16 10:38:00,
2013-07-16 05:53:00,71.2,70.9,30.19,SE,135,0.0,-999.0,99,-99.99,,,0.00,Acu-Link.com,2013-07-16 10:53:00,
2013-07-16 06:08:00,71.4,71.1,30.20,ESE,112,0.0,-999.0,99,-99.99,,,0.00,Acu-Link.com,2013-07-16 11:08:00,
2013-07-16 06:23:00,72.0,71.7,30.20,NE,45,0.0,-999.0,99,-99.99,,,0.00,Acu-Link.com,2013-07-16 11:23:00,
2013-07-16 06:38:00,72.3,72.0,30.21,East,90,0.0,-999.0,99,-99.99,,,0.00,Acu-Link.com,2013-07-16 11:38:00,
2013-07-16 06:54:00,73.8,73.5,30.22,ESE,112,1.7,-999.0,99,-99.99,,,0.00,Acu-Link.com,2013-07-16 11:54:00,
2013-07-16 07:09:00,75.6,75.3,30.22,ESE,112,0.0,-999.0,99,-99.99,,,0.00,Acu-Link.com,2013-07-16 12:09:00,
2013-07-16 07:26:00,76.3,76.0,30.22,WSW,247,1.7,-999.0,99,-99.99,,,0.00,Acu-Link.com,2013-07-16 12:26:00,
2013-07-16 07:41:00,77.2,76.9,30.23,ESE,112,1.7,-999.0,99,-99.99,,,0.00,Acu-Link.com,2013-07-16 12:41:00,
2013-07-16 07:56:00,79.9,79.6,30.22,ESE,112,0.0,-999.0,99,-99.99,,,0.00,Acu-Link.com,2013-07-16 12:56:00,
2013-07-16 08:12:00,84.2,82.6,30.23,ESE,112,1.7,-999.0,95,-99.99,,,0.00,Acu-Link.com,2013-07-16 13:12:00,
2013-07-16 08:27:00,88.7,82.1,30.22,NE,45,0.0,-999.0,81,-99.99,,,0.00,Acu-Link.com,2013-07-16 13:27:00,
2013-07-16 08:42:00,90.3,81.7,30.22,East,90,0.0,-999.0,76,-99.99,,,0.00,Acu-Link.com,2013-07-16 13:42:00,
2013-07-16 08:57:00,86.7,83.4,30.22,East,90,2.2,-999.0,90,-99.99,,,0.00,Acu-Link.com,2013-07-16 13:57:00,
2013-07-16 09:12:00,86.0,83.4,30.22,West,270,1.1,-999.0,92,-99.99,,,0.00,Acu-Link.com,2013-07-16 14:12:00,
2013-07-16 09:27:00,88.9,83.0,30.22,West,270,0.0,-999.0,83,-99.99,,,0.00,Acu-Link.com,2013-07-16 14:27:00,
2013-07-16 09:42:00,90.0,83.7,30.22,ESE,112,2.2,-999.0,82,-99.99,,,0.00,Acu-Link.com,2013-07-16 14:42:00,
2013-07-16 09:57:00,90.1,82.3,30.23,South,180,2.2,-999.0,78,-99.99,,,0.00,Acu-Link.com,2013-07-16 14:57:00,
2013-07-16 10:12:00,91.6,82.5,30.23,SSE,157,2.2,-999.0,75,-99.99,,,0.00,Acu-Link.com,2013-07-16 15:12:00,
2013-07-16 10:27:00,91.8,82.3,30.22,ESE,112,1.1,-999.0,74,-99.99,,,0.00,Acu-Link.com,2013-07-16 15:27:00,
2013-07-16 10:43:00,92.3,80.6,30.22,SSE,157,1.7,-999.0,69,-99.99,,,0.00,Acu-Link.com,2013-07-16 15:43:00,
2013-07-16 10:58:00,92.7,81.9,30.22,SSW,202,3.2,-999.0,71,-99.99,,,0.00,Acu-Link.com,2013-07-16 15:58:00,
2013-07-16 11:13:00,92.8,83.3,30.22,ENE,67,0.0,-999.0,74,-99.99,,,0.00,Acu-Link.com,2013-07-16 16:13:00,
2013-07-16 11:28:00,91.2,82.5,30.22,ENE,67,2.7,-999.0,76,-99.99,,,0.00,Acu-Link.com,2013-07-16 16:28:00,
2013-07-16 11:43:00,90.3,80.9,30.21,South,180,1.1,-999.0,74,-99.99,,,0.00,Acu-Link.com,2013-07-16 16:43:00,
2013-07-16 11:58:00,92.3,81.1,30.21,SW,225,2.2,-999.0,70,-99.99,,,0.00,Acu-Link.com,2013-07-16 16:58:00,
2013-07-16 12:13:00,91.9,80.2,30.21,WSW,247,3.2,-999.0,69,-99.99,,,0.00,Acu-Link.com,2013-07-16 17:13:00,
2013-07-16 12:28:00,95.4,81.2,30.21,ENE,67,3.7,-999.0,64,-99.99,,,0.00,Acu-Link.com,2013-07-16 17:28:00,
2013-07-16 12:44:00,91.2,80.4,30.20,NE,45,1.1,-999.0,71,-99.99,,,0.00,Acu-Link.com,2013-07-16 17:44:00,
2013-07-16 12:59:00,93.9,78.9,30.20,SSE,157,1.7,-999.0,62,-99.99,,,0.00,Acu-Link.com,2013-07-16 17:59:00,
2013-07-16 13:14:00,93.2,79.6,30.20,ENE,67,2.7,-999.0,65,-99.99,,,0.00,Acu-Link.com,2013-07-16 18:14:00,
2013-07-16 13:29:00,94.6,79.5,30.19,SSE,157,0.0,-999.0,62,-99.99,,,0.00,Acu-Link.com,2013-07-16 18:29:00,
2013-07-16 13:44:00,95.5,77.3,30.19,SSW,202,1.1,-999.0,56,-99.99,,,0.00,Acu-Link.com,2013-07-16 18:44:00,
2013-07-16 13:59:00,96.6,80.4,30.19,SSE,157,2.7,-999.0,60,-99.99,,,0.00,Acu-Link.com,2013-07-16 18:59:00,
2013-07-16 14:14:00,95.0,78.9,30.18,ESE,112,2.2,-999.0,60,-99.99,,,0.00,Acu-Link.com,2013-07-16 19:14:00,
2013-07-16 14:29:00,91.8,79.7,30.18,SSW,202,0.0,-999.0,68,-99.99,,,0.00,Acu-Link.com,2013-07-16 19:29:00,
2013-07-16 14:44:00,95.5,80.4,30.18,South,180,2.2,-999.0,62,-99.99,,,0.00,Acu-Link.com,2013-07-16 19:44:00,
2013-07-16 14:59:00,95.9,79.2,30.17,SSE,157,1.7,-999.0,59,-99.99,,,0.00,Acu-Link.com,2013-07-16 19:59:00,
2013-07-16 15:15:00,96.4,80.7,30.17,NNE,22,2.7,-999.0,61,-99.99,,,0.00,Acu-Link.com,2013-07-16 20:15:00,
2013-07-16 15:30:00,94.6,79.0,30.17,SE,135,1.1,-999.0,61,-99.99,,,0.00,Acu-Link.com,2013-07-16 20:30:00,
2013-07-16 15:45:00,95.4,80.8,30.17,NNE,22,2.2,-999.0,63,-99.99,,,0.00,Acu-Link.com,2013-07-16 20:45:00,
2013-07-16 16:00:00,94.6,78.0,30.17,ESE,112,1.1,-999.0,59,-99.99,,,0.00,Acu-Link.com,2013-07-16 21:00:00,
2013-07-16 16:15:00,95.2,79.1,30.17,ESE,112,2.7,-999.0,60,-99.99,,,0.00,Acu-Link.com,2013-07-16 21:15:00,
2013-07-16 16:30:00,95.9,79.2,30.17,SW,225,0.0,-999.0,59,-99.99,,,0.00,Acu-Link.com,2013-07-16 21:30:00,
2013-07-16 16:45:00,95.5,79.4,30.16,SSW,202,3.2,-999.0,60,-99.99,,,0.00,Acu-Link.com,2013-07-16 21:45:00,
2013-07-16 17:00:00,93.6,80.5,30.16,ESE,112,1.7,-999.0,66,-99.99,,,0.00,Acu-Link.com,2013-07-16 22:00:00,
2013-07-16 17:15:00,94.8,79.7,30.16,NE,45,1.1,-999.0,62,-99.99,,,0.00,Acu-Link.com,2013-07-16 22:15:00,
2013-07-16 17:31:00,93.7,80.6,30.16,West,270,2.2,-999.0,66,-99.99,,,0.00,Acu-Link.com,2013-07-16 22:31:00,
2013-07-16 17:46:00,97.2,78.3,30.15,South,180,1.7,-999.0,55,-99.99,,,0.00,Acu-Link.com,2013-07-16 22:46:00,
2013-07-16 18:01:00,96.3,79.1,30.16,East,90,1.7,-999.0,58,-99.99,,,0.00,Acu-Link.com,2013-07-16 23:01:00,
2013-07-16 18:16:00,95.2,79.1,30.16,NE,45,3.7,-999.0,60,-99.99,,,0.00,Acu-Link.com,2013-07-16 23:16:00,
2013-07-16 18:31:00,92.7,78.7,30.16,SE,135,1.7,-999.0,64,-99.99,,,0.00,Acu-Link.com,2013-07-16 23:31:00,
2013-07-16 18:46:00,91.9,79.3,30.16,SE,135,1.7,-999.0,67,-99.99,,,0.00,Acu-Link.com,2013-07-16 23:46:00,
2013-07-16 19:01:00,91.4,80.6,30.16,East,90,2.7,-999.0,71,-99.99,,,0.00,Acu-Link.com,2013-07-17 00:01:00,
2013-07-16 19:16:00,90.3,81.3,30.16,SSW,202,0.0,-999.0,75,-99.99,,,0.00,Acu-Link.com,2013-07-17 00:16:00,
2013-07-16 19:31:00,89.6,81.4,30.16,SSE,157,0.0,-999.0,77,-99.99,,,0.00,Acu-Link.com,2013-07-17 00:31:00,
2013-07-16 19:47:00,89.2,81.0,30.17,SSW,202,0.0,-999.0,77,-99.99,,,0.00,Acu-Link.com,2013-07-17 00:47:00,
2013-07-16 20:02:00,88.2,82.0,30.17,NE,45,0.0,-999.0,82,-99.99,,,0.00,Acu-Link.com,2013-07-17 01:02:00,
2013-07-16 20:17:00,86.7,82.4,30.17,South,180,0.0,-999.0,87,-99.99,,,0.00,Acu-Link.com,2013-07-17 01:17:00,
2013-07-16 20:32:00,85.6,83.0,30.17,NE,45,0.0,-999.0,92,-99.99,,,0.00,Acu-Link.com,2013-07-17 01:32:00,
2013-07-16 20:47:00,84.7,83.4,30.17,SSE,157,0.0,-999.0,96,-99.99,,,0.00,Acu-Link.com,2013-07-17 01:47:00,
2013-07-16 21:02:00,84.0,83.7,30.18,SSE,157,0.0,-999.0,99,-99.99,,,0.00,Acu-Link.com,2013-07-17 02:02:00,
2013-07-16 21:17:00,82.9,82.6,30.19,SSE,157,0.0,-999.0,99,-99.99,,,0.00,Acu-Link.com,2013-07-17 02:17:00,
2013-07-16 21:32:00,82.2,81.9,30.19,SSE,157,0.0,-999.0,99,-99.99,,,0.00,Acu-Link.com,2013-07-17 02:32:00,
2013-07-16 21:47:00,81.3,81.0,30.19,SSE,157,0.0,-999.0,99,-99.99,,,0.00,Acu-Link.com,2013-07-17 02:47:00,
2013-07-16 22:03:00,81.1,80.8,30.20,SE,135,0.0,-999.0,99,-99.99,,,0.00,Acu-Link.com,2013-07-17 03:03:00,
2013-07-16 22:18:00,80.8,80.5,30.20,SE,135,0.0,-999.0,99,-99.99,,,0.00,Acu-Link.com,2013-07-17 03:18:00,
2013-07-16 22:33:00,80.4,80.1,30.20,SSE,157,0.0,-999.0,99,-99.99,,,0.00,Acu-Link.com,2013-07-17 03:33:00,
2013-07-16 22:48:00,79.5,79.2,30.20,SSE,157,0.0,-999.0,99,-99.99,,,0.00,Acu-Link.com,2013-07-17 03:48:00,
2013-07-16 23:03:00,79.0,78.7,30.20,SSE,157,0.0,-999.0,99,-99.99,,,0.00,Acu-Link.com,2013-07-17 04:03:00,
2013-07-16 23:18:00,78.6,78.3,30.20,SE,135,0.0,-999.0,99,-99.99,,,0.00,Acu-Link.com,2013-07-17 04:18:00,
2013-07-16 23:33:00,78.3,78.0,30.21,SSE,157,0.0,-999.0,99,-99.99,,,0.00,Acu-Link.com,2013-07-17 04:33:00,
2013-07-16 23:48:00,77.7,77.4,30.21,SSE,157,0.0,-999.0,99,-99.99,,,0.00,Acu-Link.com,2013-07-17 04:48:00,